Location: Aldenham
(51.6667°N, 0.3500°W)
Time: 18:21:33
(UTC+00:00)

Explorer 7 - Pass Details

Date: 17 February 2026
Orbit: 430 x 542 km, 50.2° (Epoch: 8 March)

Event Time Altitude Azimuth Distance (km) Brightness Sun altitude
Rises 20:08:23 0° 280° (W) 2,540 11.5 -26.6°
Reaches altitude 10° 20:10:37 10° 272° (W) 1,680 10.2 -26.9°
Enters shadow 20:12:51 28° 246° (WSW) 963 8.4 -27.2°
Maximum altitude 20:14:08 36° 205° (SSW) 804 - -27.4°
Drops below altitude 10° 20:17:47 10° 137° (SE) 1,738 - -28.0°
Sets 20:20:07 0° 129° (SE) 2,642 - -28.3°
